| time (UTC) | temp F | wind direction | speed MPH | gust MPH | rain 1hr in | rain 24hr in | rain mn in | humidity % | barometer mb |
| 20260506211017 | 61 | 337 | 10.0 | 16.0 | 0.00 | 0.01 | 0.01 | 88 | 1013.6 |
| 20260506210523 | 61 | 331 | 9.0 | 15.0 | 0.00 | 0.01 | 0.01 | 88 | 1013.6 |
| 20260506210030 | 61 | 307 | 10.0 | 14.0 | 0.00 | 0.01 | 0.01 | 88 | 1013.7 |
| 20260506205538 | 61 | 344 | 11.0 | 13.0 | 0.00 | 0.01 | 0.01 | 88 | 1013.7 |
| 20260506205025 | 63 | 319 | 11.0 | 15.0 | 0.00 | 0.01 | 0.01 | 85 | 1013.7 |
| 20260506204551 | 63 | 318 | 9.0 | 12.0 | 0.00 | 0.01 | 0.01 | 86 | 1013.7 |
| 20260506204020 | 62 | 315 | 10.0 | 14.0 | 0.00 | 0.01 | 0.01 | 87 | 1013.7 |
| 20260506203527 | 62 | 312 | 9.0 | 15.0 | 0.00 | 0.01 | 0.01 | 87 | 1013.8 |
| 20260506203033 | 62 | 332 | 11.0 | 15.0 | 0.00 | 0.01 | 0.01 | 88 | 1013.8 |
| 20260506202541 | 62 | 328 | 13.0 | 16.0 | 0.00 | 0.01 | 0.01 | 87 | 1013.6 |
| 20260506202028 | 63 | 324 | 11.0 | 14.0 | 0.00 | 0.01 | 0.01 | 86 | 1013.6 |
| 20260506201516 | 63 | 330 | 10.0 | 17.0 | 0.00 | 0.01 | 0.01 | 86 | 1013.6 |
| 20260506201043 | 64 | 339 | 9.0 | 12.0 | 0.00 | 0.01 | 0.01 | 85 | 1013.6 |
| 20260506200529 | 64 | 333 | 8.0 | 16.0 | 0.00 | 0.01 | 0.01 | 85 | 1013.6 |
| 20260506200038 | 64 | 327 | 13.0 | 18.0 | 0.00 | 0.01 | 0.01 | 85 | 1013.4 |
| 20260506195524 | 65 | 330 | 12.0 | 16.0 | 0.00 | 0.01 | 0.01 | 84 | 1013.4 |
| 20260506195051 | 65 | 312 | 12.0 | 15.0 | 0.00 | 0.01 | 0.01 | 85 | 1013.4 |
| 20260506194519 | 66 | 327 | 11.0 | 17.0 | 0.00 | 0.01 | 0.01 | 84 | 1013.4 |
| 20260506194026 | 66 | 326 | 10.0 | 16.0 | 0.00 | 0.01 | 0.01 | 85 | 1013.4 |
| 20260506193532 | 65 | 328 | 10.0 | 14.0 | 0.00 | 0.01 | 0.01 | 86 | 1013.4 |
| 20260506193021 | 65 | 338 | 12.0 | 13.0 | 0.00 | 0.01 | 0.01 | 86 | 1013.4 |
| 20260506192527 | 65 | 343 | 11.0 | 15.0 | 0.00 | 0.01 | 0.01 | 86 | 1013.4 |
| 20260506192016 | 66 | 338 | 10.0 | 16.0 | 0.00 | 0.01 | 0.01 | 86 | 1013.5 |
| 20260506191523 | 66 | 328 | 11.0 | 14.0 | 0.00 | 0.01 | 0.01 | 86 | 1013.6 |
| 20260506191029 | 67 | 324 | 9.0 | 14.0 | 0.00 | 0.01 | 0.01 | 86 | 1013.7 |
| 20260506190518 | 67 | 308 | 7.0 | 13.0 | 0.00 | 0.01 | 0.01 | 86 | 1013.7 |
| 20260506190024 | 67 | 323 | 9.0 | 12.0 | 0.00 | 0.01 | 0.01 | 86 | 1013.5 |
| 20260506185531 | 68 | 314 | 10.0 | 14.0 | 0.00 | 0.01 | 0.01 | 85 | 1013.5 |
| 20260506185019 | 68 | 329 | 11.0 | 14.0 | 0.00 | 0.01 | 0.01 | 85 | 1013.3 |
| 20260506184526 | 70 | 340 | 11.0 | 16.0 | 0.00 | 0.01 | 0.01 | 83 | 1013.2 |
| 20260506184032 | 72 | 306 | 9.0 | 13.0 | 0.00 | 0.01 | 0.01 | 81 | 1013.2 |
| 20260506183541 | 73 | 324 | 8.0 | 15.0 | 0.00 | 0.01 | 0.01 | 80 | 1013.1 |
| 20260506183027 | 74 | 359 | 7.0 | 10.0 | 0.00 | 0.01 | 0.01 | 80 | 1013.1 |
| 20260506182535 | 75 | 317 | 8.0 | 12.0 | 0.00 | 0.01 | 0.01 | 77 | 1013.2 |
| 20260506182042 | 76 | 308 | 6.0 | 8.0 | 0.00 | 0.01 | 0.01 | 77 | 1013.2 |
| 20260506181528 | 75 | 333 | 5.0 | 6.0 | 0.00 | 0.01 | 0.01 | 78 | 1013.2 |
| 20260506181037 | 75 | 3 | 6.0 | 9.0 | 0.00 | 0.01 | 0.01 | 77 | 1013.1 |
| 20260506180524 | 75 | 300 | 6.0 | 8.0 | 0.00 | 0.01 | 0.01 | 77 | 1013.1 |
| 20260506180030 | 75 | 333 | 5.0 | 8.0 | 0.00 | 0.01 | 0.01 | 79 | 1012.7 |
| 20260506175518 | 74 | 326 | 6.0 | 8.0 | 0.00 | 0.01 | 0.01 | 80 | 1012.7 |
| 20260506175025 | 73 | 123 | 4.0 | 7.0 | 0.00 | 0.01 | 0.01 | 81 | 1012.6 |
| 20260506174532 | 73 | 137 | 4.0 | 7.0 | 0.00 | 0.01 | 0.01 | 81 | 1012.6 |
| 20260506174020 | 72 | 2 | 4.0 | 7.0 | 0.00 | 0.01 | 0.01 | 81 | 1012.6 |
| 20260506173527 | 71 | 7 | 4.0 | 6.0 | 0.00 | 0.01 | 0.01 | 82 | 1012.7 |
| 20260506173015 | 71 | 359 | 5.0 | 8.0 | 0.00 | 0.01 | 0.01 | 83 | 1012.7 |
| 20260506172521 | 71 | 73 | 4.0 | 6.0 | 0.00 | 0.01 | 0.01 | 84 | 1012.7 |
| 20260506172028 | 70 | 25 | 5.0 | 7.0 | 0.00 | 0.01 | 0.01 | 84 | 1012.7 |
| 20260506171516 | 69 | 82 | 6.0 | 9.0 | 0.01 | 0.01 | 0.01 | 85 | 1012.7 |
| 20260506171023 | 69 | 53 | 6.0 | 8.0 | 0.01 | 0.01 | 0.01 | 86 | 1012.7 |
| 20260506170529 | 68 | 58 | 6.0 | 8.0 | 0.01 | 0.01 | 0.01 | 87 | 1012.7 |
| 20260506170058 | 68 | 79 | 6.0 | 7.0 | 0.01 | 0.01 | 0.01 | 89 | 1012.7 |
| 20260506165524 | 67 | 39 | 6.0 | 9.0 | 0.01 | 0.01 | 0.01 | 91 | 1012.7 |
| 20260506165031 | 66 | 10 | 7.0 | 9.0 | 0.01 | 0.01 | 0.01 | 92 | 1012.9 |
| 20260506164519 | 66 | 59 | 4.0 | 8.0 | 0.01 | 0.01 | 0.01 | 93 | 1012.9 |
| 20260506164026 | 65 | 41 | 6.0 | 8.0 | 0.01 | 0.01 | 0.01 | 94 | 1013.1 |
| 20260506163553 | 64 | 36 | 6.0 | 8.0 | 0.01 | 0.01 | 0.01 | 96 | 1013.9 |
| 20260506163021 | 63 | 339 | 8.0 | 10.0 | 0.01 | 0.01 | 0.01 | 97 | 1013.9 |
| 20260506162527 | 62 | 345 | 8.0 | 12.0 | 0.01 | 0.01 | 0.01 | 98 | 1013.9 |
| 20260506162016 | 62 | 336 | 8.0 | 11.0 | 0.01 | 0.01 | 0.01 | 98 | 1013.9 |
| 20260506161522 | 61 | 354 | 6.0 | 8.0 | 0.00 | 0.00 | 0.00 | 98 | 1014.0 |
| 20260506161029 | 61 | 349 | 8.0 | 11.0 | 0.00 | 0.00 | 0.00 | 98 | 1014.2 |
| 20260506160537 | 61 | 323 | 11.0 | 16.0 | 0.00 | 0.00 | 0.00 | 98 | 1014.2 |
| 20260506160024 | 61 | 320 | 14.0 | 21.0 | 0.00 | 0.00 | 0.00 | 98 | 1014.2 |
| 20260506155611 | 61 | 336 | 14.0 | 18.0 | 0.00 | 0.00 | 0.00 | 98 | 1014.2 |
| 20260506155019 | 61 | 314 | 14.0 | 20.0 | 0.00 | 0.00 | 0.00 | 98 | 1014.0 |
| 20260506154526 | 62 | 309 | 13.0 | 21.0 | 0.00 | 0.00 | 0.00 | 97 | 1013.9 |
| 20260506154032 | 63 | 324 | 11.0 | 16.0 | 0.00 | 0.00 | 0.00 | 97 | 1013.9 |
| 20260506153520 | 63 | 331 | 10.0 | 19.0 | 0.00 | 0.00 | 0.00 | 97 | 1014.0 |
| 20260506153027 | 63 | 308 | 12.0 | 15.0 | 0.00 | 0.00 | 0.00 | 97 | 1014.0 |
| 20260506152515 | 64 | 343 | 12.0 | 17.0 | 0.00 | 0.00 | 0.00 | 97 | 1013.9 |
| 20260506152022 | 64 | 320 | 12.0 | 17.0 | 0.00 | 0.00 | 0.00 | 97 | 1013.9 |
| 20260506151528 | 65 | 321 | 12.0 | 19.0 | 0.00 | 0.00 | 0.00 | 96 | 1013.6 |
| 20260506151017 | 65 | 325 | 9.0 | 12.0 | 0.00 | 0.00 | 0.00 | 96 | 1013.2 |
| 20260506150543 | 65 | 323 | 9.0 | 14.0 | 0.00 | 0.00 | 0.00 | 96 | 1013.2 |
| 20260506150030 | 65 | 322 | 12.0 | 16.0 | 0.00 | 0.00 | 0.00 | 96 | 1012.7 |
| 20260506145518 | 66 | 354 | 12.0 | 18.0 | 0.00 | 0.00 | 0.00 | 95 | 1012.7 |
| 20260506145025 | 66 | 331 | 11.0 | 13.0 | 0.00 | 0.00 | 0.00 | 95 | 1012.4 |
| 20260506144532 | 67 | 350 | 10.0 | 13.0 | 0.00 | 0.00 | 0.00 | 95 | 1012.2 |
| 20260506144020 | 68 | 344 | 12.0 | 18.0 | 0.00 | 0.00 | 0.00 | 94 | 1012.1 |
| 20260506143526 | 70 | 334 | 11.0 | 16.0 | 0.00 | 0.00 | 0.00 | 93 | 1011.7 |
| 20260506143033 | 73 | 331 | 10.0 | 14.0 | 0.00 | 0.00 | 0.00 | 91 | 1011.7 |
| 20260506142521 | 79 | 349 | 6.0 | 14.0 | 0.00 | 0.00 | 0.00 | 88 | 1011.3 |
| 20260506142048 | 79 | 62 | 2.0 | 3.0 | 0.00 | 0.00 | 0.00 | 89 | 1011.2 |
| 20260506141516 | 79 | 90 | 2.0 | 4.0 | 0.00 | 0.00 | 0.00 | 89 | 1011.2 |
| 20260506141103 | 79 | 134 | 3.0 | 4.0 | 0.00 | 0.00 | 0.00 | 90 | 1011.2 |
| 20260506140529 | 78 | 161 | 3.0 | 6.0 | 0.00 | 0.00 | 0.00 | 91 | 1011.2 |
| 20260506140018 | 78 | 129 | 3.0 | 4.0 | 0.00 | 0.00 | 0.00 | 91 | 1011.3 |
| 20260506135525 | 78 | 108 | 2.0 | 3.0 | 0.00 | 0.00 | 0.00 | 92 | 1011.3 |
| 20260506135031 | 77 | 194 | 1.0 | 4.0 | 0.00 | 0.00 | 0.00 | 93 | 1011.0 |
| 20260506134519 | 77 | 157 | 3.0 | 5.0 | 0.00 | 0.00 | 0.00 | 93 | 1010.8 |
| 20260506134026 | 76 | 148 | 1.0 | 4.0 | 0.00 | 0.00 | 0.00 | 94 | 1010.9 |
| 20260506133532 | 76 | 138 | 3.0 | 4.0 | 0.00 | 0.00 | 0.00 | 94 | 1011.0 |
| 20260506133021 | 76 | 127 | 1.0 | 3.0 | 0.00 | 0.00 | 0.00 | 94 | 1011.0 |
| 20260506132527 | 76 | 134 | 3.0 | 4.0 | 0.00 | 0.00 | 0.00 | 94 | 1010.9 |
| 20260506132016 | 76 | 122 | 3.0 | 5.0 | 0.00 | 0.00 | 0.00 | 94 | 1010.8 |
| 20260506131522 | 76 | 176 | 5.0 | 8.0 | 0.00 | 0.00 | 0.00 | 94 | 1010.7 |
| 20260506131029 | 77 | 152 | 5.0 | 7.0 | 0.00 | 0.00 | 0.00 | 94 | 1010.5 |
| 20260506130517 | 77 | 155 | 5.0 | 7.0 | 0.00 | 0.00 | 0.00 | 94 | 1010.5 |
| 20260506130024 | 76 | 153 | 4.0 | 5.0 | 0.00 | 0.00 | 0.00 | 95 | 1010.4 |
| 20260506125611 | 76 | 161 | 4.0 | 6.0 | 0.00 | 0.00 | 0.00 | 96 | 1010.4 |
| 20260506125019 | 76 | 140 | 3.0 | 5.0 | 0.00 | 0.00 | 0.00 | 96 | 1010.2 |
| 20260506124525 | 75 | 172 | 3.0 | 5.0 | 0.00 | 0.00 | 0.00 | 97 | 1010.2 |
| 20260506124052 | 75 | 149 | 4.0 | 6.0 | 0.00 | 0.00 | 0.00 | 98 | 1010.2 |
| 20260506123521 | 75 | 145 | 3.0 | 6.0 | 0.00 | 0.00 | 0.00 | 98 | 1010.2 |
| 20260506123027 | 74 | 125 | 3.0 | 4.0 | 0.00 | 0.00 | 0.00 | 99 | 1010.2 |
| 20260506122515 | 74 | 141 | 3.0 | 4.0 | 0.00 | 0.00 | 0.00 | 99 | 1010.2 |
| 20260506122042 | 74 | 171 | 2.0 | 3.0 | 0.00 | 0.00 | 0.00 | 99 | 1010.2 |
| 20260506121528 | 74 | 168 | 3.0 | 4.0 | 0.00 | 0.00 | 0.00 | 99 | 1010.2 |
| 20260506121017 | 74 | 174 | 3.0 | 5.0 | 0.00 | 0.00 | 0.00 | 99 | 1010.2 |
| 20260506120543 | 74 | 170 | 3.0 | 5.0 | 0.00 | 0.00 | 0.00 | 99 | 1010.2 |
| 20260506120030 | 74 | 161 | 4.0 | 5.0 | 0.00 | 0.00 | 0.00 | 98 | 1010.1 |
| 20260506115518 | 74 | 167 | 4.0 | 5.0 | 0.00 | 0.00 | 0.00 | 98 | 1010.1 |
| 20260506115025 | 74 | 186 | 4.0 | 4.0 | 0.00 | 0.00 | 0.00 | 98 | 1010.1 |
| 20260506114532 | 74 | 175 | 3.0 | 4.0 | 0.00 | 0.00 | 0.00 | 98 | 1010.1 |
| 20260506114020 | 74 | 157 | 4.0 | 5.0 | 0.00 | 0.00 | 0.00 | 98 | 1010.1 |
| 20260506113526 | 74 | 158 | 4.0 | 5.0 | 0.00 | 0.00 | 0.00 | 98 | 1010.3 |
| 20260506113033 | 74 | 169 | 3.0 | 6.0 | 0.00 | 0.00 | 0.00 | 98 | 1010.3 |
| 20260506112521 | 74 | 156 | 3.0 | 5.0 | 0.00 | 0.00 | 0.00 | 98 | 1010.4 |
| 20260506112028 | 74 | 183 | 3.0 | 5.0 | 0.00 | 0.00 | 0.00 | 98 | 1010.4 |
| 20260506111516 | 74 | 165 | 3.0 | 5.0 | 0.00 | 0.00 | 0.00 | 98 | 1010.3 |
| 20260506111023 | 74 | 170 | 2.0 | 4.0 | 0.00 | 0.00 | 0.00 | 98 | 1010.3 |
| 20260506110529 | 74 | 186 | 3.0 | 4.0 | 0.00 | 0.00 | 0.00 | 98 | 1010.3 |
| 20260506110018 | 74 | 190 | 4.0 | 5.0 | 0.00 | 0.00 | 0.00 | 98 | 1010.2 |
| 20260506105524 | 74 | 193 | 4.0 | 5.0 | 0.00 | 0.00 | 0.00 | 98 | 1010.2 |
| 20260506105031 | 74 | 190 | 3.0 | 5.0 | 0.00 | 0.00 | 0.00 | 97 | 1010.2 |
| 20260506104519 | 74 | 203 | 4.0 | 6.0 | 0.00 | 0.00 | 0.00 | 97 | 1010.2 |
| 20260506104046 | 74 | 194 | 2.0 | 3.0 | 0.00 | 0.00 | 0.00 | 97 | 1010.1 |
| 20260506103532 | 75 | 205 | 3.0 | 5.0 | 0.00 | 0.00 | 0.00 | 97 | 1010.0 |
| 20260506103020 | 75 | 190 | 4.0 | 6.0 | 0.00 | 0.00 | 0.00 | 97 | 1010.0 |
| 20260506102527 | 75 | 196 | 3.0 | 5.0 | 0.00 | 0.00 | 0.00 | 97 | 1009.9 |
| 20260506102015 | 75 | 182 | 3.0 | 5.0 | 0.00 | 0.00 | 0.00 | 96 | 1009.8 |
| 20260506101522 | 75 | 180 | 4.0 | 5.0 | 0.00 | 0.00 | 0.00 | 96 | 1009.8 |
| 20260506101028 | 75 | 205 | 3.0 | 7.0 | 0.00 | 0.00 | 0.00 | 96 | 1009.7 |
| 20260506100516 | 75 | 195 | 4.0 | 6.0 | 0.00 | 0.00 | 0.00 | 96 | 1009.7 |
| 20260506100023 | 75 | 207 | 3.0 | 6.0 | 0.00 | 0.00 | 0.00 | 96 | 1009.8 |
| 20260506095529 | 75 | 160 | 5.0 | 7.0 | 0.00 | 0.00 | 0.00 | 96 | 1009.8 |
| 20260506095018 | 75 | 196 | 4.0 | 5.0 | 0.00 | 0.00 | 0.00 | 96 | 1009.6 |
| 20260506094524 | 75 | 187 | 3.0 | 6.0 | 0.00 | 0.00 | 0.00 | 96 | 1009.5 |
| 20260506094111 | 75 | 182 | 4.0 | 7.0 | 0.00 | 0.00 | 0.00 | 96 | 1009.4 |
| 20260506093519 | 75 | 225 | 3.0 | 6.0 | 0.00 | 0.00 | 0.00 | 96 | 1009.3 |
| 20260506093026 | 75 | 200 | 4.0 | 6.0 | 0.00 | 0.00 | 0.00 | 96 | 1009.3 |
| 20260506092532 | 75 | 157 | 2.0 | 4.0 | 0.00 | 0.00 | 0.00 | 96 | 1009.3 |
| 20260506092021 | 75 | 163 | 4.0 | 7.0 | 0.00 | 0.00 | 0.00 | 96 | 1009.3 |
| 20260506091528 | 75 | 184 | 4.0 | 7.0 | 0.00 | 0.00 | 0.00 | 96 | 1009.2 |
| 20260506091016 | 75 | 192 | 4.0 | 8.0 | 0.00 | 0.00 | 0.00 | 96 | 1009.1 |
| 20260506090522 | 75 | 190 | 5.0 | 8.0 | 0.00 | 0.00 | 0.00 | 96 | 1009.1 |
| 20260506090049 | 75 | 175 | 6.0 | 8.0 | 0.00 | 0.00 | 0.00 | 96 | 1008.8 |
| 20260506085517 | 75 | 191 | 5.0 | 8.0 | 0.00 | 0.00 | 0.00 | 96 | 1008.8 |
| 20260506085024 | 75 | 171 | 5.0 | 8.0 | 0.00 | 0.00 | 0.00 | 96 | 1009.0 |
| 20260506084530 | 75 | 188 | 4.0 | 6.0 | 0.00 | 0.00 | 0.00 | 96 | 1009.1 |
| 20260506084019 | 75 | 196 | 5.0 | 11.0 | 0.00 | 0.00 | 0.00 | 96 | 1009.0 |
| 20260506083525 | 75 | 168 | 8.0 | 12.0 | 0.00 | 0.00 | 0.00 | 96 | 1008.9 |
| 20260506083032 | 75 | 175 | 7.0 | 11.0 | 0.00 | 0.00 | 0.00 | 96 | 1008.9 |
| 20260506082520 | 75 | 190 | 6.0 | 10.0 | 0.00 | 0.00 | 0.00 | 96 | 1008.8 |
| 20260506082107 | 75 | 189 | 8.0 | 11.0 | 0.00 | 0.00 | 0.00 | 96 | 1008.8 |
| 20260506081515 | 75 | 192 | 6.0 | 11.0 | 0.00 | 0.00 | 0.00 | 96 | 1008.9 |
| 20260506081042 | 75 | 201 | 7.0 | 9.0 | 0.00 | 0.00 | 0.00 | 96 | 1009.1 |
| 20260506080528 | 75 | 182 | 8.0 | 11.0 | 0.00 | 0.00 | 0.00 | 95 | 1009.1 |
| 20260506073020 | 75 | 185 | 7.0 | 11.0 | 0.00 | 0.00 | 0.00 | 95 | 1009.3 |
| 20260506072526 | 75 | 201 | 6.0 | 11.0 | 0.00 | 0.00 | 0.00 | 95 | 1009.4 |
| 20260506072033 | 75 | 201 | 7.0 | 11.0 | 0.00 | 0.00 | 0.00 | 95 | 1009.5 |
| 20260506071541 | 75 | 183 | 8.0 | 12.0 | 0.00 | 0.00 | 0.00 | 95 | 1009.4 |
| 20260506071028 | 75 | 180 | 10.0 | 16.0 | 0.00 | 0.00 | 0.00 | 95 | 1009.3 |
| 20260506070517 | 75 | 185 | 8.0 | 11.0 | 0.00 | 0.00 | 0.00 | 95 | 1009.3 |
| 20260506062021 | 75 | 181 | 7.0 | 11.0 | 0.00 | 0.00 | 0.00 | 95 | 1009.3 |
| 20260506061527 | 75 | 148 | 7.0 | 10.0 | 0.00 | 0.00 | 0.00 | 95 | 1009.3 |
| 20260506061016 | 75 | 184 | 5.0 | 7.0 | 0.00 | 0.00 | 0.00 | 95 | 1009.3 |
| 20260506060523 | 75 | 175 | 7.0 | 10.0 | 0.00 | 0.00 | 0.00 | 95 | 1009.3 |
| 20260506051022 | 76 | 161 | 7.0 | 12.0 | 0.00 | 0.00 | 0.00 | 95 | 1009.3 |
| 20260506050529 | 76 | 165 | 7.0 | 10.0 | 0.00 | 0.00 | 0.00 | 95 | 1009.3 |
| 20260506045030 | 76 | 192 | 6.0 | 8.0 | 0.00 | 0.00 | 0.00 | 95 | 1009.3 |
| 20260506044518 | 76 | 162 | 5.0 | 8.0 | 0.00 | 0.00 | 0.00 | 95 | 1009.3 |
| 20260506044045 | 76 | 174 | 7.0 | 9.0 | 0.00 | 0.00 | 0.00 | 95 | 1009.3 |
| 20260506043532 | 76 | 190 | 6.0 | 8.0 | 0.00 | 0.00 | 0.00 | 95 | 1009.1 |
| 20260506043020 | 76 | 174 | 7.0 | 12.0 | 0.00 | 0.00 | 0.00 | 95 | 1009.1 |
| 20260506042526 | 76 | 176 | 6.0 | 9.0 | 0.00 | 0.00 | 0.00 | 94 | 1009.2 |
| 20260506042015 | 76 | 173 | 6.0 | 9.0 | 0.00 | 0.00 | 0.00 | 94 | 1009.3 |
| 20260506041522 | 76 | 186 | 5.0 | 9.0 | 0.00 | 0.00 | 0.00 | 94 | 1009.2 |
| 20260506041028 | 76 | 181 | 6.0 | 12.0 | 0.00 | 0.00 | 0.00 | 94 | 1009.1 |
| 20260506040516 | 76 | 175 | 5.0 | 10.0 | 0.00 | 0.00 | 0.00 | 94 | 1009.1 |
| 20260506040023 | 76 | 180 | 6.0 | 9.0 | 0.00 | 0.00 | 0.00 | 94 | 1008.9 |
| 20260506035529 | 76 | 233 | 5.0 | 8.0 | 0.00 | 0.00 | 0.00 | 93 | 1008.9 |
| 20260506035018 | 76 | 189 | 6.0 | 8.0 | 0.00 | 0.00 | 0.00 | 93 | 1008.8 |
| 20260506034525 | 77 | 196 | 4.0 | 6.0 | 0.00 | 0.00 | 0.00 | 93 | 1008.8 |
| 20260506034112 | 77 | 176 | 6.0 | 12.0 | 0.00 | 0.00 | 0.00 | 92 | 1008.8 |
| 20260506033519 | 77 | 202 | 5.0 | 7.0 | 0.00 | 0.00 | 0.00 | 92 | 1008.8 |
| 20260506033106 | 77 | 192 | 5.0 | 8.0 | 0.00 | 0.00 | 0.00 | 91 | 1008.8 |
| 20260506032533 | 77 | 159 | 4.0 | 7.0 | 0.00 | 0.00 | 0.00 | 91 | 1008.6 |
| 20260506032041 | 77 | 168 | 6.0 | 7.0 | 0.00 | 0.00 | 0.00 | 90 | 1008.6 |
| 20260506031528 | 77 | 171 | 6.0 | 7.0 | 0.00 | 0.00 | 0.00 | 90 | 1008.5 |
| 20260506031016 | 77 | 165 | 5.0 | 6.0 | 0.00 | 0.00 | 0.00 | 89 | 1008.4 |
| 20260506030522 | 78 | 158 | 5.0 | 8.0 | 0.00 | 0.00 | 0.00 | 89 | 1008.4 |
| 20260506030029 | 78 | 171 | 6.0 | 9.0 | 0.00 | 0.00 | 0.00 | 89 | 1008.3 |
| 20260506025517 | 78 | 183 | 3.0 | 5.0 | 0.00 | 0.00 | 0.00 | 89 | 1008.3 |
| 20260506025024 | 78 | 167 | 4.0 | 5.0 | 0.00 | 0.00 | 0.00 | 88 | 1008.2 |
| 20260506024530 | 78 | 151 | 4.0 | 7.0 | 0.00 | 0.00 | 0.00 | 88 | 1008.1 |
| 20260506024019 | 78 | 180 | 4.0 | 7.0 | 0.00 | 0.00 | 0.00 | 88 | 1008.1 |
| 20260506023525 | 78 | 179 | 4.0 | 6.0 | 0.00 | 0.00 | 0.00 | 87 | 1007.9 |
| 20260506023032 | 78 | 190 | 5.0 | 6.0 | 0.00 | 0.00 | 0.00 | 87 | 1007.9 |
| 20260506022520 | 78 | 154 | 4.0 | 6.0 | 0.00 | 0.00 | 0.00 | 87 | 1007.8 |
| 20260506022027 | 78 | 163 | 4.0 | 6.0 | 0.00 | 0.00 | 0.00 | 87 | 1007.7 |
| 20260506021515 | 78 | 164 | 5.0 | 6.0 | 0.00 | 0.00 | 0.00 | 87 | 1007.6 |
| 20260506021022 | 79 | 163 | 5.0 | 9.0 | 0.00 | 0.00 | 0.00 | 87 | 1007.5 |
| 20260506020608 | 79 | 161 | 5.0 | 7.0 | 0.00 | 0.00 | 0.00 | 86 | 1007.5 |
| 20260506020017 | 79 | 148 | 5.0 | 7.0 | 0.00 | 0.00 | 0.00 | 86 | 1007.2 |
| 20260506015523 | 79 | 142 | 5.0 | 7.0 | 0.00 | 0.00 | 0.00 | 86 | 1007.2 |
| 20260506015030 | 79 | 146 | 5.0 | 7.0 | 0.00 | 0.00 | 0.00 | 86 | 1007.2 |
| 20260506014518 | 79 | 147 | 5.0 | 7.0 | 0.00 | 0.00 | 0.00 | 85 | 1007.2 |
| 20260506014045 | 79 | 172 | 5.0 | 9.0 | 0.00 | 0.00 | 0.00 | 85 | 1007.2 |
| 20260506013531 | 79 | 152 | 5.0 | 8.0 | 0.00 | 0.00 | 0.00 | 84 | 1007.2 |
| 20260506013019 | 80 | 174 | 5.0 | 6.0 | 0.00 | 0.00 | 0.00 | 84 | 1007.2 |
| 20260506012546 | 80 | 172 | 4.0 | 6.0 | 0.00 | 0.00 | 0.00 | 83 | 1007.1 |
| 20260506012033 | 80 | 154 | 4.0 | 6.0 | 0.00 | 0.00 | 0.00 | 82 | 1007.1 |
| 20260506011521 | 80 | 154 | 4.0 | 6.0 | 0.00 | 0.00 | 0.00 | 82 | 1007.0 |
| 20260506011028 | 81 | 167 | 4.0 | 6.0 | 0.00 | 0.00 | 0.00 | 81 | 1007.0 |
| 20260506010556 | 81 | 165 | 5.0 | 8.0 | 0.00 | 0.00 | 0.00 | 80 | 1007.0 |
| 20260506010022 | 81 | 163 | 5.0 | 7.0 | 0.00 | 0.00 | 0.00 | 80 | 1007.1 |
| 20260506005529 | 81 | 178 | 5.0 | 7.0 | 0.00 | 0.00 | 0.00 | 80 | 1007.1 |
| 20260506005017 | 82 | 206 | 6.0 | 10.0 | 0.00 | 0.00 | 0.00 | 79 | 1007.2 |
| 20260506004524 | 82 | 186 | 5.0 | 7.0 | 0.00 | 0.00 | 0.00 | 78 | 1007.2 |
| 20260506004030 | 83 | 174 | 5.0 | 8.0 | 0.00 | 0.00 | 0.00 | 78 | 1007.2 |
| 20260506003519 | 82 | 190 | 5.0 | 8.0 | 0.00 | 0.00 | 0.00 | 78 | 1007.2 |
| 20260506003026 | 83 | 173 | 5.0 | 7.0 | 0.00 | 0.00 | 0.00 | 78 | 1007.2 |
| 20260506002532 | 83 | 161 | 5.0 | 8.0 | 0.00 | 0.00 | 0.00 | 78 | 1007.3 |
| 20260506002020 | 83 | 194 | 5.0 | 8.0 | 0.00 | 0.00 | 0.00 | 78 | 1007.3 |
| 20260506001527 | 83 | 174 | 5.0 | 8.0 | 0.00 | 0.00 | 0.00 | 77 | 1007.2 |
| 20260506001015 | 83 | 193 | 4.0 | 6.0 | 0.00 | 0.00 | 0.00 | 77 | 1007.2 |
| 20260506000522 | 83 | 175 | 5.0 | 7.0 | 0.00 | 0.00 | 0.00 | 77 | 1007.2 |
| 20260506000029 | 83 | 164 | 4.0 | 6.0 | 0.00 | 0.00 | 0.00 | 76 | 1007.2 |
| 20260505235517 | 83 | 209 | 5.0 | 7.0 | 0.00 | 0.00 | 0.00 | 76 | 1007.2 |
| 20260505235023 | 83 | 202 | 7.0 | 11.0 | 0.00 | 0.00 | 0.00 | 76 | 1007.0 |
| 20260505234530 | 83 | 184 | 7.0 | 10.0 | 0.00 | 0.00 | 0.00 | 76 | 1006.9 |
| 20260505234018 | 83 | 195 | 6.0 | 10.0 | 0.00 | 0.00 | 0.00 | 76 | 1006.9 |
| 20260505233525 | 84 | 169 | 6.0 | 11.0 | 0.00 | 0.00 | 0.00 | 76 | 1006.8 |
| 20260505233031 | 83 | 197 | 6.0 | 8.0 | 0.00 | 0.00 | 0.00 | 76 | 1006.8 |
| 20260505232520 | 84 | 191 | 7.0 | 9.0 | 0.00 | 0.00 | 0.00 | 76 | 1006.8 |
| 20260505232026 | 84 | 186 | 8.0 | 11.0 | 0.00 | 0.00 | 0.00 | 75 | 1006.8 |
| 20260505231533 | 84 | 196 | 6.0 | 9.0 | 0.00 | 0.00 | 0.00 | 75 | 1006.7 |
| 20260505231021 | 84 | 175 | 7.0 | 9.0 | 0.00 | 0.00 | 0.00 | 74 | 1006.7 |
| 20260505230528 | 84 | 177 | 7.0 | 11.0 | 0.00 | 0.00 | 0.00 | 74 | 1006.7 |
| 20260505230036 | 84 | 196 | 7.0 | 9.0 | 0.00 | 0.00 | 0.00 | 74 | 1006.6 |
| 20260505225523 | 84 | 172 | 7.0 | 9.0 | 0.00 | 0.00 | 0.00 | 74 | 1006.6 |
| 20260505225029 | 84 | 177 | 8.0 | 11.0 | 0.00 | 0.00 | 0.00 | 74 | 1006.6 |
| 20260505224518 | 85 | 171 | 7.0 | 10.0 | 0.00 | 0.00 | 0.00 | 73 | 1006.6 |
| 20260505224024 | 85 | 195 | 7.0 | 12.0 | 0.00 | 0.00 | 0.00 | 73 | 1006.6 |
| 20260505223531 | 85 | 185 | 8.0 | 11.0 | 0.00 | 0.00 | 0.00 | 73 | 1006.6 |
| 20260505223019 | 85 | 198 | 7.0 | 9.0 | 0.00 | 0.00 | 0.00 | 73 | 1006.6 |
| 20260505222546 | 85 | 186 | 7.0 | 10.0 | 0.00 | 0.00 | 0.00 | 72 | 1006.5 |
| 20260505222032 | 85 | 178 | 8.0 | 10.0 | 0.00 | 0.00 | 0.00 | 72 | 1006.5 |
| 20260505221521 | 85 | 196 | 7.0 | 10.0 | 0.00 | 0.00 | 0.00 | 72 | 1006.6 |
| 20260505221027 | 85 | 202 | 8.0 | 11.0 | 0.00 | 0.00 | 0.00 | 72 | 1006.7 |
| 20260505220516 | 86 | 193 | 7.0 | 12.0 | 0.00 | 0.00 | 0.00 | 72 | 1006.7 |
| 20260505220022 | 86 | 179 | 8.0 | 11.0 | 0.00 | 0.00 | 0.00 | 72 | 1006.8 |
| 20260505215529 | 86 | 194 | 8.0 | 10.0 | 0.00 | 0.00 | 0.00 | 72 | 1006.8 |
| 20260505215017 | 86 | 191 | 7.0 | 10.0 | 0.00 | 0.00 | 0.00 | 72 | 1006.8 |
| 20260505214524 | 86 | 154 | 8.0 | 10.0 | 0.00 | 0.00 | 0.00 | 73 | 1006.9 |
| 20260505214031 | 86 | 178 | 8.0 | 17.0 | 0.00 | 0.00 | 0.00 | 73 | 1006.9 |
| 20260505213519 | 86 | 160 | 8.0 | 11.0 | 0.00 | 0.00 | 0.00 | 73 | 1007.0 |
| 20260505213045 | 86 | 179 | 7.0 | 11.0 | 0.00 | 0.00 | 0.00 | 72 | 1007.0 |
| 20260505212532 | 86 | 195 | 8.0 | 10.0 | 0.00 | 0.00 | 0.00 | 72 | 1007.2 |
| 20260505212020 | 86 | 175 | 9.0 | 14.0 | 0.00 | 0.00 | 0.00 | 72 | 1007.2 |
| 20260505211547 | 87 | 179 | 8.0 | 13.0 | 0.00 | 0.00 | 0.00 | 71 | 1007.2 |